Time,TemperatureF,DewpointF,PressureIn,WindDirection,WindDirectionDegrees,WindSpeedMPH,WindSpeedGustMPH,Humidity,HourlyPrecipIn,Conditions,Clouds,dailyrainin,SoftwareType,DateUTC
2013-03-04 00:01:00,44.0,37.0,29.93,NNW,341,10.0,23.0,75,0.00,,,0.00,,2013-03-04 08:01:00,
2013-03-04 00:11:00,44.0,37.0,29.93,North,5,13.0,23.0,76,0.00,,,0.00,,2013-03-04 08:11:00,
2013-03-04 00:21:00,44.0,37.0,29.93,North,5,13.0,23.0,76,0.00,,,0.00,,2013-03-04 08:21:00,
2013-03-04 00:31:00,43.0,37.0,29.94,North,355,13.0,24.0,78,0.00,,,0.00,,2013-03-04 08:31:00,
2013-03-04 00:41:00,43.0,37.0,29.94,North,355,13.0,24.0,78,0.00,,,0.00,,2013-03-04 08:41:00,
2013-03-04 00:52:00,43.0,37.0,29.93,North,355,9.0,28.0,79,0.00,,,0.00,,2013-03-04 08:52:00,
2013-03-04 01:01:00,43.0,37.0,29.91,NNW,329,12.0,29.0,79,0.00,,,0.00,,2013-03-04 09:01:00,
2013-03-04 01:11:00,43.0,37.0,29.91,NNW,329,12.0,29.0,79,0.00,,,0.00,,2013-03-04 09:11:00,
2013-03-04 01:21:00,43.0,37.0,29.92,NNW,348,18.0,36.0,78,0.00,,,0.00,,2013-03-04 09:21:00,
2013-03-04 01:31:00,43.0,37.0,29.91,North,355,23.0,38.0,79,0.00,,,0.00,,2013-03-04 09:31:00,
2013-03-04 01:41:00,43.0,37.0,29.91,North,355,23.0,38.0,79,0.00,,,0.00,,2013-03-04 09:41:00,
2013-03-04 01:52:00,43.0,37.0,29.91,North,355,23.0,38.0,79,0.00,,,0.00,,2013-03-04 09:52:00,
2013-03-04 02:01:00,43.0,37.0,29.91,North,355,23.0,38.0,79,0.00,,,0.00,,2013-03-04 10:01:00,
2013-03-04 02:11:00,43.0,37.0,29.91,North,355,23.0,38.0,79,0.00,,,0.00,,2013-03-04 10:11:00,
2013-03-04 03:01:00,42.0,37.0,29.92,North,360,15.0,30.0,81,0.00,,,0.00,,2013-03-04 11:01:00,
2013-03-04 03:11:00,42.0,37.0,29.92,North,360,15.0,30.0,81,0.00,,,0.00,,2013-03-04 11:11:00,
2013-03-04 03:21:00,43.0,37.0,29.92,NNW,341,21.0,33.0,80,0.00,,,0.00,,2013-03-04 11:21:00,
2013-03-04 03:31:00,42.0,37.0,29.92,North,355,16.0,31.0,82,0.00,,,0.00,,2013-03-04 11:31:00,
2013-03-04 03:41:00,42.0,37.0,29.92,North,355,16.0,31.0,82,0.00,,,0.00,,2013-03-04 11:41:00,
2013-03-04 03:52:00,42.0,36.0,29.92,NNE,30,16.0,26.0,80,0.00,,,0.00,,2013-03-04 11:52:00,
2013-03-04 04:01:00,42.0,37.0,29.92,NNW,348,12.0,25.0,81,0.00,,,0.00,,2013-03-04 12:01:00,
2013-03-04 04:11:00,42.0,36.0,29.92,North,351,19.0,32.0,79,0.00,,,0.00,,2013-03-04 12:11:00,
2013-03-04 04:21:00,42.0,36.0,29.92,North,351,19.0,32.0,79,0.00,,,0.00,,2013-03-04 12:21:00,
2013-03-04 04:32:00,42.0,36.0,29.92,NNW,348,15.0,35.0,80,0.00,,,0.00,,2013-03-04 12:32:00,
2013-03-04 04:42:00,42.0,36.0,29.92,NNW,348,15.0,35.0,80,0.00,,,0.00,,2013-03-04 12:42:00,
2013-03-04 04:52:00,42.0,36.0,29.92,NNW,348,15.0,35.0,80,0.00,,,0.00,,2013-03-04 12:52:00,
2013-03-04 05:01:00,42.0,36.0,29.92,NNW,348,15.0,35.0,80,0.00,,,0.00,,2013-03-04 13:01:00,
2013-03-04 05:32:00,42.0,35.0,29.92,North,355,16.0,27.0,76,0.00,,,0.00,,2013-03-04 13:32:00,
2013-03-04 05:42:00,42.0,35.0,29.92,North,355,16.0,27.0,76,0.00,,,0.00,,2013-03-04 13:42:00,
2013-03-04 05:52:00,42.0,34.0,29.92,North,355,14.0,29.0,73,0.00,,,0.00,,2013-03-04 13:52:00,
2013-03-04 06:01:00,42.0,35.0,29.93,North,355,12.0,19.0,75,0.00,,,0.00,,2013-03-04 14:01:00,
2013-03-04 06:11:00,42.0,35.0,29.93,North,355,12.0,19.0,75,0.00,,,0.00,,2013-03-04 14:11:00,
2013-03-04 06:21:00,42.0,34.0,29.93,NW,312,11.0,18.0,74,0.00,,,0.00,,2013-03-04 14:21:00,
2013-03-04 06:31:00,42.0,35.0,29.93,North,11,10.0,26.0,75,0.00,,,0.00,,2013-03-04 14:31:00,
2013-03-04 06:41:00,42.0,35.0,29.93,North,11,10.0,26.0,75,0.00,,,0.00,,2013-03-04 14:41:00,
2013-03-04 06:52:00,42.0,35.0,29.94,NW,321,6.0,17.0,75,0.00,,,0.00,,2013-03-04 14:52:00,
2013-03-04 07:01:00,43.0,36.0,29.95,North,5,9.0,17.0,75,0.00,,,0.00,,2013-03-04 15:01:00,
2013-03-04 07:11:00,43.0,36.0,29.95,North,5,9.0,17.0,75,0.00,,,0.00,,2013-03-04 15:11:00,
2013-03-04 07:21:00,43.0,36.0,29.96,North,360,6.0,15.0,75,0.00,,,0.00,,2013-03-04 15:21:00,
2013-03-04 07:31:00,43.0,36.0,29.97,NNW,331,4.0,20.0,76,0.00,,,0.00,,2013-03-04 15:31:00,
2013-03-04 07:41:00,43.0,36.0,29.97,NNW,331,4.0,20.0,76,0.00,,,0.00,,2013-03-04 15:41:00,
2013-03-04 07:52:00,43.0,36.0,29.98,NW,316,11.0,21.0,76,0.00,,,0.00,,2013-03-04 15:52:00,
2013-03-04 08:02:00,43.0,36.0,30.00,NNW,348,10.0,19.0,77,0.00,,,0.00,,2013-03-04 16:02:00,
2013-03-04 08:11:00,43.0,36.0,30.00,NNW,348,10.0,19.0,77,0.00,,,0.00,,2013-03-04 16:11:00,
2013-03-04 08:21:00,43.0,36.0,30.00,North,360,3.0,11.0,76,0.00,,,0.00,,2013-03-04 16:21:00,
2013-03-04 08:31:00,43.0,36.0,30.00,North,5,10.0,20.0,76,0.00,,,0.00,,2013-03-04 16:31:00,
2013-03-04 08:41:00,43.0,36.0,30.00,North,5,10.0,20.0,76,0.00,,,0.00,,2013-03-04 16:41:00,
2013-03-04 08:52:00,44.0,37.0,30.00,NNE,29,11.0,20.0,75,0.00,,,0.00,,2013-03-04 16:52:00,
2013-03-04 09:01:00,46.0,35.0,30.00,NNW,348,6.0,14.0,64,0.00,,,0.00,,2013-03-04 17:01:00,
2013-03-04 09:11:00,46.0,35.0,30.00,NNW,348,6.0,14.0,64,0.00,,,0.00,,2013-03-04 17:11:00,
2013-03-04 09:21:00,50.0,35.0,30.00,North,355,7.0,12.0,56,0.00,,,0.00,,2013-03-04 17:21:00,
2013-03-04 09:31:00,51.0,33.0,30.00,NNW,347,4.0,8.0,50,0.00,,,0.00,,2013-03-04 17:31:00,
2013-03-04 09:42:00,51.0,33.0,30.00,NNW,347,4.0,8.0,50,0.00,,,0.00,,2013-03-04 17:42:00,
2013-03-04 09:52:00,52.0,33.0,30.01,SSE,148,6.0,11.0,48,0.00,,,0.00,,2013-03-04 17:52:00,
2013-03-04 10:01:00,53.0,34.0,30.01,SSW,211,2.0,8.0,48,0.00,,,0.00,,2013-03-04 18:01:00,
2013-03-04 10:11:00,53.0,34.0,30.01,SSW,211,2.0,8.0,48,0.00,,,0.00,,2013-03-04 18:11:00,
2013-03-04 10:21:00,53.0,36.0,30.01,NNW,344,5.0,8.0,53,0.00,,,0.00,,2013-03-04 18:21:00,
2013-03-04 10:31:00,55.0,38.0,30.01,NNW,341,3.0,7.0,52,0.00,,,0.00,,2013-03-04 18:31:00,
2013-03-04 10:41:00,55.0,38.0,30.01,NNW,341,3.0,7.0,52,0.00,,,0.00,,2013-03-04 18:41:00,
2013-03-04 10:52:00,54.0,35.0,30.01,South,187,5.0,8.0,48,0.00,,,0.00,,2013-03-04 18:52:00,
2013-03-04 11:01:00,55.0,34.0,30.01,SSE,165,7.0,11.0,45,0.00,,,0.00,,2013-03-04 19:01:00,
2013-03-04 11:11:00,55.0,34.0,30.01,SSE,165,7.0,11.0,45,0.00,,,0.00,,2013-03-04 19:11:00,
2013-03-04 11:21:00,56.0,34.0,30.01,SSW,192,6.0,15.0,43,0.00,,,0.00,,2013-03-04 19:21:00,
2013-03-04 11:31:00,56.0,34.0,30.01,SSE,163,4.0,13.0,43,0.00,,,0.00,,2013-03-04 19:31:00,
2013-03-04 11:41:00,56.0,34.0,30.01,SSE,163,4.0,13.0,43,0.00,,,0.00,,2013-03-04 19:41:00,
2013-03-04 11:52:00,57.0,35.0,30.00,South,187,3.0,8.0,43,0.00,,,0.00,,2013-03-04 19:52:00,
2013-03-04 12:01:00,55.0,38.0,30.00,SSE,161,7.0,17.0,52,0.00,,,0.00,,2013-03-04 20:01:00,
2013-03-04 12:11:00,55.0,37.0,30.01,South,173,2.0,11.0,51,0.00,,,0.00,,2013-03-04 20:11:00,
2013-03-04 12:21:00,55.0,37.0,30.01,South,173,2.0,11.0,51,0.00,,,0.00,,2013-03-04 20:21:00,
2013-03-04 12:31:00,54.0,40.0,30.01,North,355,4.0,12.0,58,0.00,,,0.00,,2013-03-04 20:31:00,
2013-03-04 12:41:00,54.0,40.0,30.01,North,355,4.0,12.0,58,0.00,,,0.00,,2013-03-04 20:41:00,
2013-03-04 12:52:00,55.0,41.0,30.00,North,360,5.0,10.0,58,0.00,,,0.00,,2013-03-04 20:52:00,
2013-03-04 13:01:00,56.0,38.0,30.00,SW,227,1.0,8.0,50,0.00,,,0.00,,2013-03-04 21:01:00,
2013-03-04 13:11:00,56.0,38.0,30.00,SW,227,1.0,8.0,50,0.00,,,0.00,,2013-03-04 21:11:00,
2013-03-04 13:21:00,56.0,36.0,29.99,SW,215,2.0,8.0,46,0.00,,,0.00,,2013-03-04 21:21:00,
2013-03-04 13:31:00,57.0,41.0,29.99,North,360,4.0,10.0,55,0.00,,,0.00,,2013-03-04 21:31:00,
2013-03-04 13:41:00,57.0,41.0,29.99,North,360,4.0,10.0,55,0.00,,,0.00,,2013-03-04 21:41:00,
2013-03-04 13:52:00,57.0,39.0,29.99,NNE,22,4.0,11.0,51,0.00,,,0.00,,2013-03-04 21:52:00,
2013-03-04 14:01:00,57.0,39.0,29.99,NNE,22,4.0,11.0,51,0.00,,,0.00,,2013-03-04 22:01:00,
2013-03-04 14:11:00,57.0,39.0,29.99,NNE,22,4.0,11.0,51,0.00,,,0.00,,2013-03-04 22:11:00,
2013-03-04 14:21:00,57.0,39.0,29.99,NNE,22,4.0,11.0,51,0.00,,,0.00,,2013-03-04 22:21:00,
2013-03-04 14:31:00,58.0,39.0,29.98,North,349,8.0,12.0,50,0.00,,,0.00,,2013-03-04 22:31:00,
2013-03-04 14:42:00,58.0,39.0,29.98,North,349,8.0,12.0,50,0.00,,,0.00,,2013-03-04 22:42:00,
2013-03-04 14:52:00,59.0,38.0,29.98,NNE,15,2.0,9.0,46,0.00,,,0.00,,2013-03-04 22:52:00,
2013-03-04 15:01:00,58.0,38.0,29.98,NW,316,5.0,11.0,48,0.00,,,0.00,,2013-03-04 23:01:00,
2013-03-04 15:11:00,58.0,38.0,29.98,NW,316,5.0,11.0,48,0.00,,,0.00,,2013-03-04 23:11:00,
2013-03-04 15:21:00,58.0,41.0,29.98,North,360,6.0,12.0,53,0.00,,,0.00,,2013-03-04 23:21:00,
2013-03-04 15:31:00,58.0,41.0,29.98,NW,317,6.0,10.0,53,0.00,,,0.00,,2013-03-04 23:31:00,
2013-03-04 15:41:00,58.0,41.0,29.98,NW,317,6.0,10.0,53,0.00,,,0.00,,2013-03-04 23:41:00,
2013-03-04 15:52:00,56.0,41.0,29.98,North,360,8.0,11.0,56,0.00,,,0.00,,2013-03-04 23:52:00,
2013-03-04 16:01:00,57.0,40.0,29.98,NNE,12,1.0,8.0,52,0.00,,,0.00,,2013-03-05 00:01:00,
2013-03-04 16:11:00,57.0,40.0,29.98,NNE,12,1.0,8.0,52,0.00,,,0.00,,2013-03-05 00:11:00,
2013-03-04 16:21:00,57.0,40.0,29.98,North,349,5.0,10.0,52,0.00,,,0.00,,2013-03-05 00:21:00,
2013-03-04 16:32:00,57.0,38.0,29.98,North,360,3.0,7.0,49,0.00,,,0.00,,2013-03-05 00:32:00,
2013-03-04 16:41:00,57.0,38.0,29.98,North,360,3.0,7.0,49,0.00,,,0.00,,2013-03-05 00:41:00,
2013-03-04 16:52:00,56.0,36.0,29.98,NNW,348,0.0,7.0,46,0.00,,,0.00,,2013-03-05 00:52:00,
2013-03-04 17:01:00,56.0,37.0,29.99,NNW,348,3.0,4.0,48,0.00,,,0.00,,2013-03-05 01:01:00,
2013-03-04 17:11:00,56.0,37.0,29.99,NNW,348,3.0,4.0,48,0.00,,,0.00,,2013-03-05 01:11:00,
2013-03-04 17:21:00,55.0,36.0,29.99,NNW,348,1.0,3.0,49,0.00,,,0.00,,2013-03-05 01:21:00,
2013-03-04 17:32:00,52.0,39.0,30.00,NNE,17,8.0,10.0,61,0.00,,,0.00,,2013-03-05 01:32:00,
2013-03-04 17:41:00,52.0,39.0,30.00,NNE,17,8.0,10.0,61,0.00,,,0.00,,2013-03-05 01:41:00,
2013-03-04 17:52:00,52.0,39.0,30.00,North,5,5.0,8.0,62,0.00,,,0.00,,2013-03-05 01:52:00,
2013-03-04 18:01:00,51.0,38.0,30.00,North,5,6.0,7.0,60,0.00,,,0.00,,2013-03-05 02:01:00,
2013-03-04 18:11:00,51.0,38.0,30.00,North,5,6.0,7.0,60,0.00,,,0.00,,2013-03-05 02:11:00,
2013-03-04 18:21:00,50.0,36.0,30.00,North,360,3.0,6.0,59,0.00,,,0.00,,2013-03-05 02:21:00,
2013-03-04 18:31:00,49.0,36.0,30.00,North,351,2.0,7.0,61,0.00,,,0.00,,2013-03-05 02:31:00,
2013-03-04 18:41:00,49.0,36.0,30.00,North,351,2.0,7.0,61,0.00,,,0.00,,2013-03-05 02:41:00,
2013-03-04 18:52:00,48.0,34.0,30.00,NNW,348,3.0,6.0,58,0.00,,,0.00,,2013-03-05 02:52:00,
2013-03-04 19:01:00,47.0,33.0,30.00,North,355,3.0,5.0,59,0.00,,,0.00,,2013-03-05 03:01:00,
2013-03-04 19:11:00,48.0,34.0,30.00,North,355,0.0,3.0,57,0.00,,,0.00,,2013-03-05 03:11:00,
2013-03-04 19:21:00,48.0,34.0,30.00,North,355,0.0,3.0,57,0.00,,,0.00,,2013-03-05 03:21:00,
2013-03-04 19:31:00,47.0,35.0,30.00,North,355,3.0,6.0,63,0.00,,,0.00,,2013-03-05 03:31:00,
2013-03-04 19:41:00,47.0,35.0,30.00,North,355,3.0,6.0,63,0.00,,,0.00,,2013-03-05 03:41:00,
2013-03-04 19:52:00,46.0,36.0,30.00,North,351,4.0,6.0,67,0.00,,,0.00,,2013-03-05 03:52:00,
2013-03-04 20:01:00,46.0,34.0,30.00,NNW,347,1.0,4.0,63,0.00,,,0.00,,2013-03-05 04:01:00,
2013-03-04 20:11:00,46.0,34.0,30.00,NNW,347,1.0,4.0,63,0.00,,,0.00,,2013-03-05 04:11:00,
2013-03-04 20:21:00,47.0,35.0,30.01,NNW,347,0.0,2.0,62,0.00,,,0.00,,2013-03-05 04:21:00,
2013-03-04 20:31:00,47.0,36.0,30.01,NNW,348,2.0,3.0,66,0.00,,,0.00,,2013-03-05 04:31:00,
2013-03-04 20:41:00,47.0,36.0,30.01,NNW,348,2.0,3.0,66,0.00,,,0.00,,2013-03-05 04:41:00,
2013-03-04 20:52:00,46.0,36.0,30.02,NNW,348,3.0,5.0,67,0.00,,,0.00,,2013-03-05 04:52:00,
2013-03-04 21:01:00,46.0,36.0,30.02,North,351,1.0,5.0,69,0.00,,,0.00,,2013-03-05 05:01:00,
2013-03-04 21:11:00,46.0,36.0,30.02,North,351,1.0,5.0,69,0.00,,,0.00,,2013-03-05 05:11:00,
2013-03-04 21:22:00,47.0,36.0,30.02,North,350,2.0,4.0,66,0.00,,,0.00,,2013-03-05 05:22:00,
2013-03-04 21:31:00,47.0,36.0,30.02,North,355,2.0,5.0,66,0.00,,,0.00,,2013-03-05 05:31:00,
2013-03-04 21:41:00,47.0,36.0,30.02,North,355,2.0,5.0,66,0.00,,,0.00,,2013-03-05 05:41:00,
2013-03-04 21:52:00,47.0,36.0,30.02,North,355,2.0,3.0,66,0.00,,,0.00,,2013-03-05 05:52:00,
2013-03-04 22:01:00,46.0,35.0,30.03,North,360,1.0,5.0,66,0.00,,,0.00,,2013-03-05 06:01:00,
2013-03-04 22:11:00,46.0,35.0,30.03,North,360,1.0,5.0,66,0.00,,,0.00,,2013-03-05 06:11:00,
2013-03-04 22:21:00,45.0,35.0,30.03,North,360,2.0,4.0,67,0.00,,,0.00,,2013-03-05 06:21:00,
2013-03-04 22:31:00,45.0,35.0,30.03,North,355,4.0,5.0,69,0.00,,,0.00,,2013-03-05 06:31:00,
2013-03-04 22:41:00,45.0,35.0,30.03,North,355,4.0,5.0,69,0.00,,,0.00,,2013-03-05 06:41:00,
2013-03-04 22:52:00,46.0,36.0,30.03,NNW,348,5.0,6.0,67,0.00,,,0.00,,2013-03-05 06:52:00,
2013-03-04 23:01:00,45.0,35.0,30.03,North,360,0.0,6.0,69,0.00,,,0.00,,2013-03-05 07:01:00,
2013-03-04 23:11:00,45.0,35.0,30.03,North,360,0.0,6.0,69,0.00,,,0.00,,2013-03-05 07:11:00,
2013-03-04 23:21:00,44.0,36.0,30.03,North,10,2.0,3.0,73,0.00,,,0.00,,2013-03-05 07:21:00,
2013-03-04 23:31:00,44.0,38.0,30.03,North,360,3.0,5.0,78,0.00,,,0.00,,2013-03-05 07:31:00,
2013-03-04 23:41:00,44.0,38.0,30.03,North,360,3.0,5.0,78,0.00,,,0.00,,2013-03-05 07:41:00,
2013-03-04 23:51:00,44.0,38.0,30.03,North,355,1.0,4.0,80,0.00,,,0.00,,2013-03-05 07:51:00,